Location: Stoke Bliss
(52.2667°N, 2.5167°W)
Time: 12:16:17
(UTC+00:00)

Envisat - Pass Details

Date: 08 December 2021
Orbit: 764 x 766 km, 98.2° (Epoch: 23 January)

Event Time Altitude Azimuth Distance (km) Brightness Sun altitude
Rises 04:41:04 0° 19° (NNE) 3,247 6.5 -30.0°
Reaches altitude 10° 04:43:31 10° 27° (NNE) 2,316 5.8 -29.7°
Maximum altitude 04:48:19 40° 97° (E) 1,122 4.2 -28.9°
Drops below altitude 10° 04:53:05 10° 166° (SSE) 2,298 5.6 -28.2°
Sets 04:55:30 0° 174° (S) 3,219 6.3 -27.8°
